Overview Statistics Trail Chart Weather Telemetry Raw packets
 

This is the latest recevied weather packets stored in our database for station/object WA6OOO. If no packets are shown the sender has not sent any weather packets the latest 10 day(s).

<< 89 90 91 92 93 94 95 >>
Time Temp. Humidity Pressure Rain* Wind** Luminosity Snow
1788014931 23.33° C 77% 1015.8 hPa 0 mm - 55 W/m² -
1788014631 23.89° C 77% 1015.8 hPa 0 mm - 53 W/m² -
1788014326 23.33° C 79% 1015.9 hPa 0 mm - 75 W/m² -
1788014022 22.78° C 81% 1015.9 hPa 0 mm - 94 W/m² -
1788013721 21.67° C 86% 1015.6 hPa 0 mm - 85 W/m² -
1788013421 20.56° C 88% 1015.8 hPa 0 mm - 83 W/m² -
1788013121 20.56° C 91% 1015.7 hPa 0 mm - 65 W/m² -
1788012820 20° C 92% 1015.9 hPa 0 mm - 48 W/m² -
1788012515 20° C 92% 1015.7 hPa 0 mm - 34 W/m² -
1788012215 20° C 92% 1015.8 hPa 0 mm - 26 W/m² -
1788011922 20° C 92% 1015.8 hPa 0 mm - 19 W/m² -
1788011612 19.44° C 91% 1015.7 hPa 0 mm - 13 W/m² -
1788011309 19.44° C 91% 1015.7 hPa 0 mm - 10 W/m² -
1788011007 20° C 91% 1015.6 hPa 0 mm - 9 W/m² -
1788010703 20° C 90% 1015.6 hPa 0 mm - 7 W/m² -
1788010401 19.44° C 88% 1015.6 hPa 0 mm - 4 W/m² -
1788010096 19.44° C 88% 1015.4 hPa 0 mm - 3 W/m² -
1788009791 20° C 87% 1015.5 hPa 0 mm - 1 W/m² -
1788009490 20° C 88% 1015.2 hPa 0 mm - 1 W/m² -
1788009190 20.56° C 89% 1015.2 hPa 0 mm - 0 W/m² -
1788008885 20.56° C 88% 1015.3 hPa 0 mm - 0 W/m² -
1788008580 20° C 87% 1015.1 hPa 0 mm - 0 W/m² -
1788008278 20° C 87% 1015.1 hPa 0 mm - 0 W/m² -
1788007976 20° C 87% 1015.1 hPa 0 mm - 0 W/m² -
1788007674 20° C 87% 1015 hPa 0 mm - 0 W/m² -

* Rain latest hour (hover to see other rain measurements)
** Current wind speed in m/s (hover to see current wind gust speed)